Flag for Slovakia Weather past 2 weeks in Bratislava, Slovakia

Now
63 °F

Broken clouds.


Feels Like: 63 °F
Forecast: 57 / 66 °F
Wind: 12 mph from Northwest

Location: Bratislava Ivanka

Current Time: Sep 4, 2015 at 10:04:05 AM

Latest Report: Sep 4, 2015 at 9:30 AM


Visibility: N/A

Pressure: 29.98 "Hg

Humidity: 77%

Dew point: 55 °F

Location of BratislavaLocation

Historic Weather in Bratislava — Graph

°F

Bratislava temperature yesterday

Maximum temperature yesterday: 77 °F (at 4:30 PM)
Minimum temperature yesterday: 55 °F (at 6:00 AM)
Average temperature yesterday: 67 °F

Past Weeks' High & Low Weather Summary

 TemperatureHumidityPressure
High93 °F (Aug 30, 4:00 PM)100% (Aug 28, 3:00 AM)30.24 "Hg (Aug 28, 3:00 AM)
Low54 °F (Aug 23, 4:00 AM)27% (Aug 31, 7:00 PM)29.74 "Hg (Sep 1, 6:00 PM)
Average70 °F66%30.03 "Hg
* Reported Aug 20 9:00 AM — Sep 4 9:00 AM, Bratislava, Weather by CustomWeather, © 2015

Note: Actual official high and low records may vary slightly from our data, if they occured in-between our weather recording intervals... More about our weather records

Advertising

Bratislava weather history for previous 24 hours

 ConditionsComfort  
Time TempWeatherWind HumidityBarometerVisibility
9:00 AM
Fri, Sep 4
63 °FBroken clouds.12 mph77%29.98 "HgN/A
8:30 AM61 °FBroken clouds.13 mph83%29.95 "HgN/A
8:00 AM61 °FBroken clouds.17 mph83%29.95 "HgN/A
7:30 AM61 °FBroken clouds.16 mph83%29.95 "HgN/A
7:00 AM61 °FPartly cloudy.13 mph83%29.95 "HgN/A
6:30 AM61 °FPassing clouds.15 mph83%29.92 "HgN/A
6:00 AM61 °FPartly cloudy.17 mph83%29.92 "HgN/A
5:30 AM61 °FPartly cloudy.15 mph83%29.92 "HgN/A
5:00 AM61 °FPassing clouds.17 mph88%29.89 "HgN/A
4:30 AM63 °FPassing clouds.15 mph83%29.92 "HgN/A
4:00 AM61 °FPassing clouds.16 mph88%29.89 "HgN/A
3:30 AM61 °FPartly cloudy.16 mph88%29.89 "HgN/A
3:00 AM61 °FPartly cloudy.16 mph88%29.89 "HgN/A
2:30 AM63 °FPartly cloudy.18 mph83%29.89 "HgN/A
2:00 AM64 °FPartly cloudy.23 mph78%29.89 "HgN/A
1:30 AM66 °FPassing clouds.8 mph73%29.86 "HgN/A
1:00 AM68 °FPassing clouds.12 mph69%29.86 "HgN/A
12:30 AM66 °FPassing clouds.1 mph78%29.86 "HgN/A
12:00 AM66 °FPassing clouds.2 mph78%29.86 "HgN/A
11:30 PM
Thu, Sep 3
64 °FPassing clouds.2 mph78%29.86 "HgN/A
11:00 PM64 °FPassing clouds.6 mph78%29.86 "HgN/A
10:30 PM66 °FPassing clouds.2 mph73%29.86 "HgN/A
10:00 PM66 °FClear.3 mph73%29.86 "Hg10 mi
9:30 PM66 °FPassing clouds.3 mph73%29.86 "HgN/A
9:00 PM66 °FPassing clouds.7 mph73%29.86 "HgN/A
8:30 PM68 °FPassing clouds.2 mph69%29.86 "HgN/A
8:00 PM70 °FPassing clouds.5 mph64%29.86 "HgN/A
7:30 PM72 °FPassing clouds.2 mph57%29.86 "HgN/A
7:00 PM73 °FSunny.2 mph53%29.86 "Hg10 mi
6:30 PM73 °FSunny.2 mph53%29.86 "Hg10 mi
6:00 PM75 °FPassing clouds.3 mph50%29.86 "HgN/A
5:30 PM75 °FSunny.2 mph47%29.89 "Hg10 mi
5:00 PM75 °FPassing clouds.3 mph47%29.89 "HgN/A
4:30 PM77 °FSunny.2 mph44%29.89 "Hg10 mi
4:00 PM75 °FSunny.2 mph47%29.89 "Hg10 mi
3:30 PM73 °FPassing clouds.3 mph50%29.92 "HgN/A
3:00 PM73 °FPartly sunny.7 mph53%29.92 "HgN/A
2:30 PM73 °FPassing clouds.3 mph47%29.92 "HgN/A
2:00 PM75 °FScattered clouds.5 mph47%29.92 "HgN/A
1:30 PM75 °FPassing clouds.2 mph47%29.95 "HgN/A
1:00 PM73 °FPartly sunny.3 mph50%29.95 "HgN/A
12:30 PM72 °FPartly sunny.2 mph57%29.95 "HgN/A
12:00 PM70 °FPassing clouds.2 mph57%29.95 "HgN/A
11:30 AM70 °FScattered clouds.7 mph60%29.95 "HgN/A
11:00 AM72 °FPartly sunny.3 mph53%29.98 "HgN/A
10:30 AM72 °FSunny.2 mph61%29.98 "Hg10 mi
10:00 AM70 °FSunny.2 mph60%29.98 "Hg10 mi
Weather by CustomWeather, © 2015

See weather overviewHow to use our weather pages